Weather History for Leadville, CO

Change the Weather History Date:

Thursday, August 7, 2014

  Actual Average Record
Temperature  
Mean Temperature 54 °F -  
Max Temperature 68 °F 69 °F 76 °F (1977)
Min Temperature 39 °F 39 °F 31 °F (1991)
Degree Days  
Heating Degree Days 11 11  
Month to date heating degree days 83 77  
Since 1 June heating degree days 804 893  
Since 1 July heating degree days 350 413  
Cooling Degree Days 0 0  
Month to date cooling degree days 0 0  
Year to date cooling degree days 0 0  
Since 1 June cooling degree days 0 0  
Growing Degree Days 2 (Base 50)    
Moisture  
Dew Point 37 °F    
Average Humidity 59    
Maximum Humidity 92    
Minimum Humidity 26    
Precipitation  
Precipitation T in 0.07 in 0.44 in (2013)
Month to date precipitation 0.63 0.47  
Year to date precipitation 11.95 7.39  
Sea Level Pressure  
Sea Level Pressure 30.00 in    
Wind  
Wind Speed 8 mph (NNW)    
Max Wind Speed 21 mph    
Max Gust Speed 37 mph    
Visibility 10 miles    
Events Rain , Thunderstorm    
T = Trace of Precipitation, MM = Missing Value Source: NWS Daily Summary

Daily Weather History Graph

Daily Weather History Graph

Search for Another Location

Airport:

Trip Planner

Search our weather history database for the weather conditions in past years. The results will help you decide how hot, cold, wet, or windy it might be!

Date:

Astronomy

Aug. 07, 2014 Rise Set
Actual Time 6:10 AM MDT 8:10 PM MDT
Civil Twilight 5:41 AM MDT 8:39 PM MDT
Nautical Twilight 5:05 AM MDT 9:15 PM MDT
Astronomical Twilight 4:27 AM MDT 9:53 PM MDT
Moon 5:29 PM MDT (8/7) 2:44 AM MDT (8/7)
Length of Visible Light 14h 58m
Length of Day
13h 59m
Waxing Gibbous, 87% of the Moon is Illuminated
Aug 7
Waxing Gibbous
Aug 10
Full
Aug 17
Last Quarter
Aug 25
New
Sep 2
First Quarter

Hourly Weather History & Observations

Time (MDT) Temp. Windchill Dew Point Humidity Pressure Visibility Wind Dir Wind Speed Gust Speed Precip Events Conditions
12:53 AM 44.1 °F - 39.0 °F 82% 29.99 in 10.0 mi Calm Calm - N/A   Partly Cloudy
1:53 AM 41.0 °F - 37.0 °F 86% 30.03 in 10.0 mi Calm Calm - N/A   Clear
2:53 AM 44.1 °F - 37.9 °F 79% 29.99 in 10.0 mi Calm Calm - N/A   Clear
3:53 AM 43.0 °F - 37.9 °F 82% 29.98 in 10.0 mi Calm Calm - N/A   Mostly Cloudy
4:53 AM 41.0 °F - 37.9 °F 89% 29.98 in 10.0 mi Calm Calm - N/A   Scattered Clouds
5:53 AM 39.9 °F - 37.0 °F 89% 29.97 in 10.0 mi Calm Calm - N/A   Clear
6:53 AM 43.0 °F 41.3 °F 39.0 °F 86% 29.99 in 10.0 mi East 3.5 mph - N/A   Mostly Cloudy
7:53 AM 48.0 °F - 42.1 °F 80% 29.99 in 10.0 mi Calm Calm - N/A   Overcast
8:53 AM 53.1 °F - 42.1 °F 66% 29.98 in 10.0 mi West 6.9 mph - N/A   Clear
9:53 AM 50.0 °F - 42.1 °F 74% 30.05 in 10.0 mi WNW 13.8 mph - 0.00 in Rain Light Rain
10:53 AM 55.9 °F - 39.0 °F 53% 30.00 in 10.0 mi NNE 9.2 mph - 0.00 in   Scattered Clouds
11:53 AM 62.1 °F - 37.0 °F 39% 29.95 in 10.0 mi North 5.8 mph - N/A   Partly Cloudy
12:53 PM 60.1 °F - 36.0 °F 41% 29.97 in 10.0 mi West 11.5 mph 36.8 mph N/A Thunderstorm Mostly Cloudy
1:02 PM 59.0 °F - 34.0 °F 39% 30.43 in 10.0 mi NW 12.7 mph 21.9 mph N/A   Overcast
1:16 PM 60.1 °F - 35.1 °F 39% 30.43 in 10.0 mi North 9.2 mph - 0.00 in Rain Light Rain
1:53 PM 63.0 °F - 34.0 °F 34% 29.95 in 10.0 mi NNW 10.4 mph - 0.00 in   Scattered Clouds
2:53 PM 64.9 °F - 35.1 °F 33% 29.90 in 10.0 mi Variable 6.9 mph - N/A   Mostly Cloudy
3:53 PM 64.9 °F - 34.0 °F 32% 29.89 in 10.0 mi NW 10.4 mph 17.3 mph N/A   Mostly Cloudy
4:53 PM 66.0 °F - 32.0 °F 28% 29.88 in 10.0 mi WNW 19.6 mph 24.2 mph N/A   Scattered Clouds
5:53 PM 66.0 °F - 30.0 °F 26% 29.89 in 10.0 mi WNW 15.0 mph 19.6 mph N/A   Clear
6:53 PM 62.1 °F - 36.0 °F 38% 29.90 in 10.0 mi NW 18.4 mph 24.2 mph N/A   Partly Cloudy
7:53 PM 55.9 °F - 37.0 °F 49% 29.94 in 10.0 mi NNW 11.5 mph - N/A   Clear
8:53 PM 52.0 °F - 37.0 °F 57% 29.95 in 10.0 mi North 11.5 mph - N/A   Clear
9:53 PM 48.0 °F - 37.0 °F 66% 30.01 in 10.0 mi NE 6.9 mph - N/A   Clear
10:53 PM 46.0 °F 43.1 °F 37.0 °F 71% 30.00 in 10.0 mi NNE 5.8 mph - N/A   Clear
11:53 PM 45.0 °F 41.8 °F 37.0 °F 74% 29.96 in 10.0 mi NNE 5.8 mph - N/A   Clear